Home   Weather   Guilin   Past weeks

Flag for China Past Weather in Guilin, Guangxi, China — Yesterday and Last 2 Weeks

Now
50 °F

Fog.


Feels Like: 49 °F
Forecast: 42 / 72 °F
Wind: 3 mph from Northwest

Location: Guilin Airport

Current Time: Dec 7, 2016 at 10:28:02 pm

Latest Report: Dec 7, 2016 at 10:00 pm


Visibility: 2 mi

Pressure: 30.18 "Hg

Humidity: 94%

Dew Point: 48 °F

Location of GuilinLocation

Past Weather in Guilin — Graph

°F

Guilin Temperature Yesterday

Maximum temperature yesterday: 70 °F (at 2:00 pm)
Minimum temperature yesterday: 45 °F (at 6:00 am)
Average temperature yesterday: 56 °F

High & Low Weather Summary for the Past Weeks

 TemperatureHumidityPressure
High73 °F (Dec 4, 2:00 pm)100% (Nov 25, 12:00 pm)30.48 "Hg (Nov 25, 12:00 pm)
Low39 °F (Nov 23, 8:00 pm)21% (Dec 6, 1:00 pm)30.07 "Hg (Nov 27, 4:00 pm)
Average52 °F75%30.26 "Hg
* Reported Nov 22 9:00 pm — Dec 7 9:00 pm, Guilin, Weather by CustomWeather, © 2016

Note: Actual official high and low records may vary slightly from our data, if they occured in-between our weather recording intervals... More about our weather records

Advertising

Guilin Weather History for the Previous 24 Hours

Scroll right to see more
 ConditionsComfort  
Time TempWeatherWind HumidityBarometerVisibility
9:00 pm
Wed, Dec 7
52 °FClear.3 mph82%30.18 "Hg4 mi
8:00 pm52 °FClear.1 mph82%30.15 "Hg10 mi
7:00 pm59 °FClear.3 mph63%30.15 "Hg10 mi
6:00 pm63 °FClear.3 mph52%30.12 "Hg10 mi
5:00 pm70 °FSunny.1 mph33%30.09 "Hg10 mi
4:00 pm70 °FSunny.1 mph29%30.09 "Hg10 mi
3:00 pm70 °FPassing clouds.3 mph27%30.09 "HgN/A
2:00 pm68 °FSunny.1 mph33%30.12 "Hg10 mi
1:00 pm66 °FSunny.3 mph37%30.15 "Hg10 mi
12:00 pm64 °FSunny.1 mph40%30.21 "Hg10 mi
11:00 am59 °FSunny.1 mph51%30.24 "Hg10 mi
10:00 am52 °FSunny.1 mph67%30.27 "Hg10 mi
8:00 am41 °FSunny.No wind93%30.24 "Hg10 mi
7:00 am39 °FClear.No wind93%30.24 "Hg10 mi
6:00 am39 °FFog.No wind93%30.24 "Hg3 mi
5:00 am39 °FFog.1 mph100%30.24 "Hg3 mi
4:00 am41 °FClear.No wind93%30.24 "Hg4 mi
3:00 am39 °FClear.1 mph100%30.24 "Hg4 mi
1:00 am43 °FClear.1 mph93%30.24 "Hg4 mi
12:00 am43 °FClear.3 mph93%30.24 "Hg4 mi
11:00 pm
Tue, Dec 6
45 °FClear.1 mph87%30.24 "Hg5 mi
10:00 pm48 °FClear.No wind76%30.24 "Hg5 mi
Weather by CustomWeather, © 2016

See weather overviewHow to use our weather pages